Stations météo

Publicité
Ajaccio, France (7761): Température de l'air & dewpoint: 21.06.2019 12:00:00 - 27.06.2019 12:00:00 (CEST)Ajaccio, France (7761): Température de l'air 5cm: 21.06.2019 12:00:00 - 27.06.2019 12:00:00 (CEST)Ajaccio, France (7761): Température de l'air -20cm & Température de l'air -100cm: 21.06.2019 12:00:00 - 27.06.2019 12:00:00 (CEST)Ajaccio, France (7761): Vitesse du vent & gusts: 21.06.2019 12:00:00 - 27.06.2019 12:00:00 (CEST)Ajaccio, France (7761): Direction du vent: 21.06.2019 12:00:00 - 27.06.2019 12:00:00 (CEST)Ajaccio, France (7761): reduced air pressure: 21.06.2019 12:00:00 - 27.06.2019 12:00:00 (CEST)Ajaccio, France (7761): visibility: 21.06.2019 12:00:00 - 27.06.2019 12:00:00 (CEST)Ajaccio, France (7761): Ensoleillement: 21.06.2019 12:00:00 - 27.06.2019 12:00:00 (CEST)Ajaccio, France (7761): Quantités de précipitations: 21.06.2019 12:00:00 - 27.06.2019 12:00:00 (CEST)
Date & Time tt [°C] td [°C] tt 5cm [°C] tt -20cm [°C] tt -100cm [°C] ff [km/h] ff [knt] fx [km/h] fx [knt] dd ppp [hPa] vv [km] sd [min] rr [mm]
27.06.2019 12:00:00 29,4 19,7 38,3 30,6 25,5 13 7 22 12 S 1019,7 16 60 0,0
27.06.2019 11:00:00 28,6 21,6 37,9 30,7 25,5 12 7 24 13 SW 1019,5 15 60 0,0
27.06.2019 10:00:00 27,4 21,7 35,8 30,9 25,5 13 7 23 12 SW 1019,5 12 60 0,0
27.06.2019 09:00:00 29,5 17,7 30,4 31,1 25,5 6 3 17 9 SW 1019,5 20 60 0,0
27.06.2019 08:00:00 25,5 16,9 23,5 31,3 25,5 12 6 21 11 NNE 1019,4 35 60 0,0
27.06.2019 07:00:00 22,0 16,0 19,5 31,5 25,5 13 7 23 12 NNE 1019,7 39 31 0,0
27.06.2019 06:00:00 20,5 15,7 19,2 31,6 25,5 15 8 20 11 NE 1019,8 33 0 0,0
27.06.2019 05:00:00 20,5 15,9 19,6 31,8 25,5 13 7 18 10 NE 1019,8 30 0 0,0
27.06.2019 04:00:00 21,0 16,2 20,1 31,9 25,5 14 7 22 12 NE 1019,8 31 0 0,0
27.06.2019 03:00:00 21,0 16,6 20,3 32,0 25,5 14 8 23 13 NE 1020,1 31 0 0,0
27.06.2019 02:00:00 21,2 17,2 20,2 32,1 25,4 10 5 17 9 NE 1020,3 27 0 0,0
27.06.2019 01:00:00 21,4 17,6 20,7 32,2 25,5 11 6 16 9 NE 1020,6 25 0 0,0
27.06.2019 00:00:00 22,4 18,4 21,5 32,1 25,4 8 4 11 6 ENE 1020,7 18 0 0,0
26.06.2019 23:00:00 23,6 19,7 22,3 32,1 25,4 4 2 8 4 E 1020,5 18 0 0,0
26.06.2019 22:00:00 24,3 19,4 23,1 31,9 25,4 3 2 7 4 ESE 1020,3 23 0 0,0
26.06.2019 21:00:00 25,5 21,0 25,2 31,7 25,4 3 1 10 5 S 1020,1 27 28 0,0
26.06.2019 20:00:00 27,0 21,3 29,7 31,5 25,4 8 4 16 9 SW 1019,8 34 60 0,0
26.06.2019 19:00:00 28,0 20,6 32,6 31,2 25,4 10 6 19 10 SSW 1019,6 21 60 0,0
26.06.2019 18:00:00 28,5 20,5 31,7 30,9 25,3 15 8 27 14 SSW 1019,7 17 60 0,0
26.06.2019 17:00:00 29,2 20,6 32,2 30,6 25,3 20 11 31 17 S 1020,1 13 60 0,0
26.06.2019 16:00:00 30,0 20,3 33,8 30,4 25,3 22 12 33 18 S 1020,3 11 60 0,0
26.06.2019 15:00:00 30,4 20,3 36,6 30,2 25,3 22 12 31 17 S 1020,5 13 60 0,0
26.06.2019 14:00:00 30,0 19,7 36,9 30,1 25,3 22 12 33 18 S 1021,1 14 60 0,0
26.06.2019 13:00:00 28,9 20,6 36,4 30,1 25,3 21 12 30 16 S 1021,2 17 60 0,0
26.06.2019 12:00:00 28,1 19,9 35,4 30,2 25,3 16 9 26 14 SSW 1021,2 20 60 0,0
26.06.2019 11:00:00 27,6 21,6 36,8 30,3 25,3 16 8 22 12 SW 1021,3 26 60 0,0
26.06.2019 10:00:00 27,0 19,4 34,9 30,5 25,3 14 7 20 11 SW 1020,8 36 60 0,0
26.06.2019 09:00:00 26,4 18,8 30,0 30,6 25,2 9 5 15 8 SW 1020,5 48 60 0,0
26.06.2019 08:00:00 25,7 16,0 23,2 30,8 25,2 9 5 20 11 NE 1020,2 60 60 0,0
26.06.2019 07:00:00 21,4 15,0 19,5 31,0 25,3 13 7 19 11 NE 1020,1 48 30 0,0
26.06.2019 06:00:00 20,3 14,9 19,4 31,2 25,2 13 7 17 9 NE 1019,9 49 0 0,0
26.06.2019 05:00:00 20,7 15,0 19,7 31,3 25,2 13 7 19 10 NE 1019,7 48 0 0,0
26.06.2019 04:00:00 20,5 15,7 19,6 31,5 25,2 14 7 19 10 NE 1019,8 44 0 0,0
26.06.2019 03:00:00 20,7 16,3 19,9 31,6 25,2 14 8 19 10 NE 1020,2 41 0 0,0
26.06.2019 02:00:00 20,8 17,2 20,0 31,6 25,2 10 5 15 8 NE 1020,4 32 0 0,0
26.06.2019 01:00:00 22,4 17,7 21,2 31,7 25,2 5 3 8 4 NE 1020,5 26 0 0,0
26.06.2019 00:00:00 23,1 18,0 22,0 31,6 25,2 0 0 11 6 N 1020,4 32 0 0,0
25.06.2019 23:00:00 24,1 18,5 23,1 31,6 25,2 6 4 14 7 NE 1019,8 37 0 0,0
25.06.2019 22:00:00 25,2 19,1 24,2 31,4 25,2 6 3 9 5 NE 1019,6 32 0 0,0
25.06.2019 21:00:00 25,7 19,8 25,3 31,2 25,2 3 1 8 4 SE 1019,5 43 9 0,0
25.06.2019 20:00:00 26,8 20,4 28,8 30,9 25,1 5 3 13 7 SSW 1019,4 38 60 0,0
25.06.2019 19:00:00 27,6 20,4 31,3 30,6 25,1 9 5 18 10 SSW 1019,4 34 60 0,0
25.06.2019 18:00:00 28,0 20,6 33,6 30,4 25,1 13 7 21 11 SW 1019,4 20 60 0,0
25.06.2019 17:00:00 28,1 21,6 33,7 30,1 25,1 13 7 22 12 SW 1019,3 14 60 0,0
25.06.2019 16:00:00 28,1 21,1 34,7 29,8 25,1 14 8 28 15 SW 1019,4 14 60 0,0
25.06.2019 15:00:00 29,1 20,5 35,4 29,7 25,1 18 10 27 14 SSW 1019,3 14 60 0,0
25.06.2019 14:00:00 28,9 20,6 36,3 29,6 25,1 17 9 26 14 SSW 1019,4 16 60 0,0
25.06.2019 13:00:00 28,2 21,2 39,2 29,6 25,1 15 8 24 13 SW 1019,3 21 60 0,0
25.06.2019 12:00:00 27,8 20,4 36,6 29,7 25,1 13 7 21 11 SW 1019,3 24 60 0,0
25.06.2019 11:00:00 26,9 20,0 35,7 29,7 25,0 11 6 19 10 SW 1019,2 30 60 0,0
25.06.2019 10:00:00 26,8 18,9 34,7 29,9 25,1 7 4 11 6 WSW 1019,3 34 60 0,0
25.06.2019 09:00:00 25,5 17,9 28,2 30,1 25,0 4 2 9 5 WSW 1019,3 45 60 0,0
25.06.2019 08:00:00 24,0 14,7 21,6 30,3 25,0 7 4 17 9 NE 1019,0 53 60 0,0
25.06.2019 07:00:00 20,6 14,3 19,1 30,5 25,1 8 5 21 11 NE 1018,5 48 0 0,0
25.06.2019 06:00:00 20,0 14,1 18,8 30,6 25,0 14 8 22 12 NE 1017,9 50 0 0,0
25.06.2019 05:00:00 19,7 14,5 18,9 30,8 25,0 15 8 20 11 NE 1017,3 48 0 0,0
25.06.2019 04:00:00 20,5 14,6 19,3 30,8 25,0 11 6 18 10 NE 1016,9 46 0 0,0
25.06.2019 03:00:00 20,4 14,7 19,6 31,0 25,0 11 6 19 10 NE 1017,0 44 0 0,0
25.06.2019 02:00:00 20,9 14,8 20,2 31,1 25,0 13 7 16 9 NE 1017,2 20 0 0,0
25.06.2019 01:00:00 21,7 15,3 20,9 31,1 25,0 11 6 16 9 NE 1017,5 45 0 0,0
25.06.2019 00:00:00 22,1 15,7 21,4 31,1 25,0 11 6 17 9 NE 1017,7 20 0 0,0
24.06.2019 23:00:00 23,2 17,0 22,4 31,0 25,0 6 3 10 5 ENE 1017,6 20 0 0,0
24.06.2019 22:00:00 24,4 19,0 22,8 30,8 25,0 3 2 6 4 E 1017,2 20 0 0,0
24.06.2019 21:00:00 25,0 19,6 24,7 30,6 25,0 0 0 8 4 N 1016,5 48 0 0,0
24.06.2019 20:00:00 25,6 21,1 27,5 30,4 25,0 6 3 18 10 WNW 1016,4 20 27 0,0
24.06.2019 19:00:00 26,5 21,0 30,0 30,0 25,0 12 6 21 11 SW 1016,3 22 60 0,0
24.06.2019 18:00:00 27,1 20,0 33,1 29,8 24,9 11 6 24 13 SW 1016,2 21 60 0,0
24.06.2019 17:00:00 27,1 18,4 33,0 29,5 24,9 10 6 20 11 WSW 1016,4 15 60 0,0
24.06.2019 16:00:00 26,4 18,8 33,8 29,3 25,0 13 7 19 10 WSW 1016,5 12 60 0,0
24.06.2019 15:00:00 26,5 19,6 34,4 29,1 24,9 11 6 22 12 SW 1016,9 12 60 0,0
24.06.2019 14:00:00 26,5 19,4 35,3 29,0 24,9 17 9 35 19 SW 1017,0 12 60 0,0
24.06.2019 13:00:00 27,1 19,4 33,7 29,0 24,9 27 14 39 21 SSW 1017,0 14 60 0,0
24.06.2019 12:00:00 27,8 19,6 36,4 29,0 24,9 16 9 27 15 SSW 1016,7 20 60 0,0
24.06.2019 11:00:00 27,3 18,9 36,8 29,1 24,9 13 7 24 13 SW 1016,5 24 60 0,0
24.06.2019 10:00:00 26,4 16,3 34,0 29,3 24,9 7 4 16 9 SW 1016,8 28 60 0,0
24.06.2019 09:00:00 26,9 15,9 26,0 29,5 24,8 6 3 16 9 NNE 1017,1 30 60 0,0
24.06.2019 08:00:00 21,8 14,9 19,5 29,7 24,9 10 6 20 11 NE 1017,2 33 60 0,0
24.06.2019 07:00:00 18,4 13,5 15,4 29,9 24,9 12 6 21 12 NE 1017,0 20 21 0,0
24.06.2019 06:00:00 16,1 13,2 15,4 30,1 24,9 14 7 19 10 NE 1016,9 32 0 0,0
24.06.2019 05:00:00 17,1 13,6 16,1 30,3 24,8 9 5 15 8 NE 1016,5 28 0 0,0
24.06.2019 04:00:00 17,5 13,8 16,5 30,4 24,9 10 5 17 9 NE 1016,6 33 0 0,0
24.06.2019 03:00:00 17,6 13,9 16,7 30,5 24,9 8 4 11 6 NE 1017,2 32 0 0,0
24.06.2019 02:00:00 18,3 14,4 17,4 30,6 24,8 5 3 8 4 NE 1017,3 30 0 0,0
24.06.2019 01:00:00 19,4 14,6 18,3 30,7 24,8 3 2 10 6 NE 1017,2 40 0 0,0
24.06.2019 00:00:00 20,4 15,0 19,3 30,7 24,8 8 5 16 9 NE 1016,9 49 0 0,0
23.06.2019 23:00:00 20,8 16,0 19,7 30,6 24,8 11 6 15 8 NE 1016,6 55 0 0,0
23.06.2019 22:00:00 22,8 17,5 19,8 30,5 24,8 4 2 8 4 N 1016,1 58 0 0,0
23.06.2019 21:00:00 23,9 18,3 23,3 30,3 24,8 6 3 14 8 SW 1015,4 60 4 0,0
23.06.2019 20:00:00 24,5 17,2 26,8 30,0 24,8 11 6 17 9 SSW 1015,1 46 53 0,0
23.06.2019 19:00:00 25,8 18,2 28,3 29,7 24,8 13 7 22 12 SSW 1015,0 14 60 0,0
23.06.2019 18:00:00 25,7 18,4 28,1 29,5 24,8 17 9 26 14 S 1015,3 12 60 0,0
23.06.2019 17:00:00 26,3 17,9 29,1 29,2 24,8 20 11 29 16 S 1015,7 11 60 0,0
23.06.2019 16:00:00 26,1 17,5 28,6 29,0 24,7 22 12 33 18 SSW 1015,8 9 60 0,0
23.06.2019 15:00:00 26,7 18,0 32,4 28,8 24,7 26 14 36 20 SSW 1016,0 10 60 0,0
23.06.2019 14:00:00 26,9 17,9 34,0 28,7 24,7 24 13 34 19 S 1015,9 12 60 0,0
23.06.2019 13:00:00 26,4 18,8 35,1 28,7 24,7 18 10 37 20 SW 1015,6 16 60 0,0
23.06.2019 12:00:00 25,5 18,9 34,5 28,8 24,7 10 5 28 15 SSW 1015,7 20 60 0,0
23.06.2019 11:00:00 25,1 19,0 32,7 28,9 24,7 22 12 29 16 SW 1015,8 25 60 0,0
23.06.2019 10:00:00 24,7 16,9 29,1 29,1 24,7 14 7 19 10 SW 1015,3 20 60 0,0
23.06.2019 09:00:00 23,7 15,7 25,6 29,3 24,7 6 4 13 7 NE 1015,3 28 60 0,0
23.06.2019 08:00:00 21,2 14,6 20,1 29,5 24,7 6 4 11 6 NNE 1015,3 29 60 0,0
23.06.2019 07:00:00 18,0 14,7 16,3 29,7 24,7 7 4 16 9 NE 1015,0 19 31 0,0
23.06.2019 06:00:00 17,0 14,5 16,2 29,8 24,7 10 5 16 9 NE 1014,8 11 0 0,0
23.06.2019 05:00:00 17,3 14,8 16,4 30,0 24,7 11 6 19 10 NE 1014,9 13 0 0,0
23.06.2019 04:00:00 17,6 14,9 16,8 30,1 24,7 10 5 15 8 NE 1015,0 11 0 0,0
23.06.2019 03:00:00 17,9 15,2 17,0 30,2 24,6 11 6 15 8 NE 1015,0 11 0 0,0
23.06.2019 02:00:00 18,8 15,8 17,7 30,3 24,7 10 5 14 8 NE 1015,0 12 0 0,0
23.06.2019 01:00:00 19,7 16,3 18,9 30,4 24,7 9 5 14 7 NE 1015,0 9 0 0,0
23.06.2019 00:00:00 20,4 16,8 19,1 30,4 24,7 9 5 11 6 NE 1015,1 8 0 0,0
22.06.2019 23:00:00 21,7 17,7 20,0 30,3 24,6 6 3 9 5 E 1014,8 14 0 0,0
22.06.2019 22:00:00 22,9 18,0 21,5 30,2 24,6 6 3 16 9 NNE 1014,5 18 0 0,0
22.06.2019 21:00:00 23,8 17,3 23,1 30,0 24,6 6 4 22 12 NNW 1013,8 23 18 0,0
22.06.2019 20:00:00 24,6 18,1 25,1 29,7 24,6 16 9 26 14 NW 1013,3 29 12 0,0
22.06.2019 19:00:00 25,1 19,2 27,3 29,4 24,6 11 6 24 13 S 1013,2 22 47 0,0
22.06.2019 18:00:00 25,3 19,4 28,3 29,1 24,6 15 8 31 17 SSW 1013,2 11 60 0,0
22.06.2019 17:00:00 26,0 20,1 28,5 28,9 24,6 21 12 32 18 S 1013,5 11 42 0,0
22.06.2019 16:00:00 26,4 19,8 30,6 28,6 24,6 23 12 34 18 SSW 1013,5 11 60 0,0
22.06.2019 15:00:00 26,4 19,8 34,1 28,4 24,6 20 11 33 18 SSW 1013,5 12 60 0,0
22.06.2019 14:00:00 26,0 19,6 32,2 28,3 24,6 20 11 29 16 SW 1014,0 14 60 0,0
22.06.2019 13:00:00 26,4 20,0 36,0 28,3 24,6 20 11 28 15 SW 1014,2 17 60 0,0
22.06.2019 12:00:00 25,2 19,6 35,2 28,3 24,5 14 8 23 12 WSW 1014,2 20 60 0,0
22.06.2019 11:00:00 25,3 20,3 35,1 28,4 24,5 14 8 23 12 SSW 1013,9 20 60 0,0
22.06.2019 10:00:00 24,6 18,3 29,3 28,6 24,6 9 5 21 11 WSW 1013,4 20 49 0,0
22.06.2019 09:00:00 24,5 15,7 27,0 28,7 24,6 4 2 13 7 WSW 1013,6 46 37 0,0
22.06.2019 08:00:00 22,9 14,2 21,3 28,8 24,5 6 3 10 5 ESE 1013,4 38 19 0,0
22.06.2019 07:00:00 20,4 13,1 19,1 29,0 24,6 4 2 12 7 SSE 1012,3 49 0 0,0
22.06.2019 06:00:00 20,4 12,9 19,0 29,1 24,5 8 5 16 9 NE 1012,0 47 0 0,0
22.06.2019 05:00:00 20,4 13,4 19,5 29,2 24,5 11 6 18 10 NE 1012,6 47 0 0,0
22.06.2019 04:00:00 22,1 13,7 20,6 29,3 24,5 9 5 13 7 NNE 1013,1 47 0 0,0
22.06.2019 03:00:00 22,3 13,4 21,5 29,4 24,5 5 3 15 8 E 1013,4 54 0 0,0
22.06.2019 02:00:00 22,7 14,0 21,9 29,5 24,5 9 5 19 10 NW 1013,6 54 0 0,0
22.06.2019 01:00:00 22,6 12,2 21,4 29,6 24,5 4 2 19 11 ENE 1012,5 58 0 0,0
22.06.2019 00:00:00 22,4 11,2 21,6 29,6 24,5 7 4 15 8 NNE 1012,8 59 0 0,0
21.06.2019 23:00:00 22,6 11,0 21,6 29,6 24,5 4 2 16 9 SSE 1014,1 60 0 0,0
21.06.2019 22:00:00 23,9 12,5 21,9 29,5 24,5 7 4 11 6 NNE 1012,9 59 0 0,0
21.06.2019 21:00:00 23,8 13,3 22,6 29,4 24,5 7 4 16 8 SSE 1012,8 60 0 0,0
21.06.2019 20:00:00 25,2 12,4 25,7 29,3 24,5 4 2 16 8 WNW 1012,9 60 0 0,0
21.06.2019 19:00:00 25,6 15,6 27,5 29,1 24,4 9 5 21 11 SSW 1013,2 56 17 0,0
21.06.2019 18:00:00 25,8 16,1 29,7 28,9 24,4 16 9 31 17 SSW 1013,1 36 36 0,0
21.06.2019 17:00:00 27,6 15,3 30,1 28,8 24,4 24 13 35 19 SSW 1012,2 46 17 0,0
21.06.2019 16:00:00 28,4 8,1 27,2 28,5 24,4 16 9 23 13 N 1010,8 60 0 0,0
21.06.2019 15:00:00 25,8 9,6 26,8 28,3 24,4 16 9 37 20 S 1014,5 58 13 0,0
21.06.2019 14:00:00 27,6 15,6 33,1 28,3 24,4 24 13 36 19 S 1014,3 13 60 0,0
21.06.2019 13:00:00 28,0 13,9 34,4 28,3 24,4 22 12 34 18 S 1013,4 14 60 0,0
21.06.2019 12:00:00 27,1 13,4 34,5 28,4 24,4 14 8 26 14 S 1012,9 17 60 0,0

tt = Température de l'air
td = dewpoint
tt 5cm = Température de l'air 5cm
tt -20cm = Température de l'air -20cm
tt -100cm = Température de l'air -100cm
ff = Vitesse du vent
fx = gusts
dd = Direction du vent
ppp = reduced air pressure
vv = visibility
sd = Ensoleillement
rr = Quantités de précipitations

stations d'obs. à proximité